TimeEDT,TemperatureF,Dew PointF,Humidity,Sea Level PressureIn,VisibilityMPH,Wind Direction,Wind SpeedMPH,Gust SpeedMPH,PrecipitationIn,Events,Conditions,WindDirDegrees,DateUTC
12:15 AM,69.8,69.8,100,29.96,10.0,South,4.6,-,N/A,,Scattered Clouds,180,2013-06-27 04:15:00
12:35 AM,69.8,69.8,100,29.95,10.0,SSW,5.8,-,N/A,,Scattered Clouds,200,2013-06-27 04:35:00
12:55 AM,69.8,69.8,100,29.95,10.0,Calm,Calm,-,N/A,,Clear,0,2013-06-27 04:55:00
1:15 AM,69.8,69.8,100,29.95,10.0,Calm,Calm,-,N/A,,Clear,0,2013-06-27 05:15:00
1:35 AM,69.8,69.8,100,29.93,10.0,Calm,Calm,-,N/A,,Mostly Cloudy,0,2013-06-27 05:35:00
2:15 AM,68.0,68.0,100,29.94,5.0,South,3.5,-,N/A,,Clear,190,2013-06-27 06:15:00
2:35 AM,69.8,69.8,100,29.94,10.0,Calm,Calm,-,N/A,,Clear,0,2013-06-27 06:35:00
2:55 AM,69.8,69.8,100,29.94,10.0,Calm,Calm,-,N/A,,Clear,0,2013-06-27 06:55:00
3:15 AM,68.0,68.0,100,29.93,10.0,SSW,3.5,-,N/A,,Clear,200,2013-06-27 07:15:00
3:35 AM,68.0,68.0,100,29.93,7.0,South,3.5,-,N/A,,Clear,180,2013-06-27 07:35:00
3:55 AM,69.8,69.8,100,29.93,10.0,Calm,Calm,-,N/A,,Clear,0,2013-06-27 07:55:00
4:15 AM,69.8,69.8,100,29.92,10.0,South,3.5,-,N/A,,Clear,190,2013-06-27 08:15:00
4:35 AM,69.8,69.8,100,29.92,10.0,South,3.5,-,N/A,,Clear,170,2013-06-27 08:35:00
4:55 AM,69.8,69.8,100,29.92,10.0,SSW,3.5,-,N/A,,Clear,200,2013-06-27 08:55:00
5:15 AM,69.8,69.8,100,29.91,10.0,South,4.6,-,N/A,,Clear,190,2013-06-27 09:15:00
5:35 AM,69.8,69.8,100,29.91,10.0,SSW,5.8,-,N/A,,Clear,200,2013-06-27 09:35:00
5:55 AM,69.8,69.8,100,29.90,10.0,South,5.8,-,N/A,,Clear,190,2013-06-27 09:55:00
6:15 AM,69.8,69.8,100,29.90,10.0,South,5.8,-,N/A,,Clear,180,2013-06-27 10:15:00
6:35 AM,69.8,69.8,100,29.89,10.0,South,4.6,-,N/A,,Clear,180,2013-06-27 10:35:00
6:55 AM,69.8,69.8,100,29.90,10.0,South,5.8,-,N/A,,Clear,190,2013-06-27 10:55:00
7:15 AM,69.8,69.8,100,29.89,10.0,South,6.9,-,N/A,,Scattered Clouds,180,2013-06-27 11:15:00
7:35 AM,71.6,71.6,100,29.90,10.0,SSW,8.1,-,N/A,,Mostly Cloudy,200,2013-06-27 11:35:00
7:55 AM,71.6,71.6,100,29.89,10.0,South,8.1,-,N/A,,Overcast,190,2013-06-27 11:55:00
8:15 AM,71.6,71.6,100,29.89,7.0,SSW,9.2,-,N/A,,Overcast,200,2013-06-27 12:15:00
8:35 AM,71.6,71.6,100,29.88,7.0,South,9.2,-,N/A,,Overcast,190,2013-06-27 12:35:00
8:55 AM,73.4,73.4,100,29.88,7.0,South,9.2,-,N/A,,Overcast,190,2013-06-27 12:55:00
9:15 AM,73.4,73.4,100,29.89,7.0,South,10.4,-,N/A,,Overcast,190,2013-06-27 13:15:00
9:35 AM,73.4,73.4,100,29.88,7.0,SSW,9.2,-,N/A,,Overcast,210,2013-06-27 13:35:00
9:55 AM,73.4,73.4,100,29.88,7.0,SSW,9.2,-,N/A,,Overcast,210,2013-06-27 13:55:00
10:15 AM,75.2,75.2,100,29.87,7.0,South,6.9,-,N/A,,Overcast,190,2013-06-27 14:15:00
10:35 AM,75.2,75.2,100,29.87,7.0,South,10.4,-,N/A,,Overcast,190,2013-06-27 14:35:00
10:55 AM,78.8,78.8,100,29.86,10.0,South,12.7,18.4,N/A,,Mostly Cloudy,190,2013-06-27 14:55:00
11:15 AM,78.8,35.6,21,29.86,10.0,SSW,13.8,-,N/A,,Mostly Cloudy,210,2013-06-27 15:15:00
11:35 AM,82.4,77.0,84,29.86,10.0,SSW,13.8,20.7,N/A,,Mostly Cloudy,210,2013-06-27 15:35:00
11:55 AM,82.4,-9999,N/A,29.86,10.0,SW,10.4,-,N/A,,Mostly Cloudy,230,2013-06-27 15:55:00
12:15 PM,-9999,-9999,N/A,29.86,10.0,SSW,16.1,20.7,N/A,,Mostly Cloudy,210,2013-06-27 16:15:00
12:35 PM,-9999,-9999,N/A,29.85,10.0,SW,10.4,20.7,N/A,,Scattered Clouds,220,2013-06-27 16:35:00
12:55 PM,84.2,75.2,74,29.84,10.0,SW,12.7,19.6,N/A,,Scattered Clouds,220,2013-06-27 16:55:00
1:15 PM,84.2,75.2,74,29.85,10.0,SW,12.7,20.7,N/A,,Scattered Clouds,220,2013-06-27 17:15:00
1:35 PM,87.8,75.2,66,29.84,10.0,SW,12.7,20.7,N/A,,Scattered Clouds,220,2013-06-27 17:35:00
1:55 PM,87.8,73.4,62,29.84,10.0,SW,12.7,19.6,N/A,,Mostly Cloudy,220,2013-06-27 17:55:00
2:15 PM,87.8,75.2,66,29.84,10.0,West,6.9,-,N/A,,Scattered Clouds,260,2013-06-27 18:15:00
2:35 PM,86.0,73.4,66,29.83,10.0,West,6.9,-,N/A,,Scattered Clouds,270,2013-06-27 18:35:00
2:55 PM,87.8,73.4,62,29.82,10.0,WSW,9.2,-,N/A,,Scattered Clouds,250,2013-06-27 18:55:00
3:15 PM,87.8,75.2,66,29.81,10.0,SW,5.8,-,N/A,,Scattered Clouds,230,2013-06-27 19:15:00
3:35 PM,87.8,75.2,66,29.80,10.0,SW,9.2,-,N/A,,Scattered Clouds,230,2013-06-27 19:35:00
3:55 PM,87.8,75.2,66,29.79,10.0,WSW,11.5,17.3,N/A,,Clear,250,2013-06-27 19:55:00
4:15 PM,89.6,75.2,62,29.78,10.0,WSW,4.6,-,N/A,,Clear,250,2013-06-27 20:15:00
4:35 PM,89.6,75.2,62,29.78,10.0,WSW,5.8,-,N/A,,Clear,250,2013-06-27 20:35:00
4:55 PM,89.6,75.2,62,29.77,10.0,SW,8.1,-,N/A,,Clear,230,2013-06-27 20:55:00
5:15 PM,89.6,73.4,59,29.77,10.0,SSW,9.2,-,N/A,,Scattered Clouds,200,2013-06-27 21:15:00
5:35 PM,86.0,75.2,70,29.77,10.0,SSW,6.9,-,N/A,,Mostly Cloudy,200,2013-06-27 21:35:00
5:55 PM,87.8,75.2,66,29.77,10.0,SSW,10.4,-,N/A,,Scattered Clouds,200,2013-06-27 21:55:00
6:15 PM,87.8,77.0,70,29.77,1.0,SSW,9.2,-,N/A,,Scattered Clouds,200,2013-06-27 22:15:00
6:35 PM,87.8,75.2,66,29.76,10.0,SSW,6.9,-,N/A,Thunderstorm,Scattered Clouds,210,2013-06-27 22:35:00
6:55 PM,87.8,75.2,66,29.76,10.0,SSW,5.8,-,N/A,,Clear,210,2013-06-27 22:55:00
7:15 PM,86.0,75.2,70,29.76,10.0,SSW,4.6,-,N/A,,Clear,210,2013-06-27 23:15:00
7:35 PM,84.2,75.2,74,29.76,10.0,Calm,Calm,-,N/A,,Clear,0,2013-06-27 23:35:00
7:55 PM,82.4,77.0,84,29.77,10.0,Calm,Calm,-,N/A,,Mostly Cloudy,0,2013-06-27 23:55:00
8:15 PM,82.4,77.0,84,29.77,10.0,Calm,Calm,-,N/A,,Mostly Cloudy,0,2013-06-28 00:15:00
8:35 PM,82.4,77.0,84,29.76,10.0,South,8.1,-,N/A,Thunderstorm,Mostly Cloudy,180,2013-06-28 00:35:00
8:55 PM,82.4,75.2,79,29.77,10.0,South,8.1,-,N/A,Thunderstorm,Mostly Cloudy,190,2013-06-28 00:55:00
9:15 PM,78.8,77.0,94,29.78,10.0,SSW,8.1,-,0.04,,Scattered Clouds,200,2013-06-28 01:15:00
9:35 PM,77.0,77.0,100,29.77,1.0,SW,4.6,-,0.04,,Scattered Clouds,230,2013-06-28 01:35:00
9:55 PM,77.0,75.2,94,29.78,1.0,South,3.5,-,N/A,,Scattered Clouds,180,2013-06-28 01:55:00
10:15 PM,75.2,75.2,100,29.79,1.0,South,3.5,-,N/A,Thunderstorm,Scattered Clouds,170,2013-06-28 02:15:00
10:35 PM,75.2,75.2,100,29.80,10.0,South,3.5,-,0.01,,Scattered Clouds,180,2013-06-28 02:35:00
10:55 PM,75.2,75.2,100,29.79,10.0,South,6.9,-,N/A,,Scattered Clouds,190,2013-06-28 02:55:00
11:15 PM,75.2,75.2,100,29.79,10.0,South,3.5,-,N/A,,Clear,170,2013-06-28 03:15:00
11:35 PM,75.2,75.2,100,29.79,10.0,SSW,6.9,-,N/A,,Clear,210,2013-06-28 03:35:00
11:55 PM,75.2,75.2,100,29.78,10.0,South,5.8,-,N/A,,Clear,180,2013-06-28 03:55:00